GFSWCAN_850_dewp_276.txt.gz
Dewpoint
-5 -6 -6 -6 -5 -4 -4 -3 -3 -4 -4 -4 -4 -6 -7 -6 -9 -13 -17 -20 -22 -15 -5 -6 -8 -6 -6 -8 -6 -5 -5 -5 -3 -2 -2 -1 -2 -5 -5 -7 -6 -6 -4 -3 -4 -1 -1 -11 -10 -6 -7 -6 -6 -7
-4 -5 -6 -6 -6 -6 -5 -4 -4 -4 -4 -4 -4 -6 -10 -11 -15 -15 -11 -8 -8 -7 -3 -11 -10 -8 -6 -9 -8 -6 -4 -5 -4 -2 -2 -3 -1 -2 -3 -2 -8 -4 -6 -5 -5 -5 -8 -8 -7 -8 -8 -7 -6 -4
-6 -8 -7 -7 -7 -7 -8 -7 -7 -6 -5 -5 -5 -6 -11 -11 -7 -6 -4 -4 -3 -2 -2 -4 -3 -7 -8 -10 -7 -5 -5 -4 -4 -3 -3 -2 -1 -4 -1 -3 -6 -7 -8 -5 -4 -6 -7 -6 -4 -4 -2 -1 -2 -3
-9 -9 -8 -7 -7 -9 -8 -8 -6 -6 -7 -7 -8 -10 -9 -5 -4 -3 -2 -2 -2 -3 -2 -2 -4 -5 -5 -6 -6 -6 -3 -4 -3 -3 -2 -0 -1 -4 -2 -4 -3 -5 -5 -4 -4 -5 -3 -4 -5 -5 -4 -3 -3 -3
-8 -8 -9 -9 -9 -7 -6 -6 -6 -7 -7 -7 -4 -3 -3 -3 -4 -3 -2 -1 -1 -3 -1 -2 -3 -5 -5 -4 -4 -4 -4 -3 -2 -2 -2 -2 -3 -3 -3 -3 -2 -6 -4 -1 0 -2 -2 -4 -5 -5 -5 -4 -4 -4
-8 -9 -11 -11 -7 -6 -6 -7 -8 -6 -4 -4 -4 -4 -3 -2 -3 -3 -3 -3 -1 -2 -2 -2 -3 -2 -3 -3 -2 -2 -2 -3 -2 -2 -2 -2 -3 -2 -0 -1 -6 -4 -3 -3 -2 -4 -4 -5 -5 -4 -4 -4 -5 -5
-8 -9 -9 -8 -8 -8 -9 -6 -4 -4 -4 -4 -4 -4 -3 -2 -3 -5 -2 -2 -2 -2 -2 -2 -2 -2 -2 -2 -2 -2 -2 -2 -2 -2 -2 -2 -3 -1 0 -2 -5 -3 -3 -3 -5 -5 -7 -5 -5 -3 -5 -6 -6 -6
-7 -9 -8 -8 -7 -8 -6 -4 -4 -5 -6 -5 -5 -4 -3 -1 -3 -3 -3 -3 -3 -2 -2 -2 -3 -2 -2 -1 -2 -3 -2 -3 -2 -2 -1 -1 -1 -1 -0 -4 -3 -3 -4 -5 -6 -7 -7 -5 -4 -3 -2 -3 -4 -4
-7 -8 -7 -7 -6 -6 -5 -5 -5 -6 -6 -6 -4 -3 -2 -2 -3 -2 -3 -3 -2 -2 -2 -2 -3 -2 -3 -0 -1 -2 -2 -1 -1 -2 -2 -1 -1 -0 -3 -2 -3 -4 -6 -7 -7 -7 -6 -4 -4 -4 -3 -4 -4 -4
-6 -7 -7 -7 -7 -6 -5 -5 -5 -6 -6 -4 -3 -3 -3 -3 -4 -3 -3 -3 -2 -2 -2 -2 -4 -2 -2 -1 -1 -1 -2 -1 -0 -1 -1 0 -2 -4 -2 -3 -4 -5 -7 -8 -8 -8 -8 -6 -6 -5 -6 -5 -5 -5
-5 -5 -5 -6 -6 -7 -7 -8 -6 -6 -6 -4 -3 -4 -3 -2 -2 -2 -2 -2 -2 -2 -2 -2 -4 -4 -4 -2 -2 -2 -1 -1 -1 -0 -0 -2 -2 -1 -2 -4 -5 -6 -7 -8 -9 -9 -8 -8 -7 -6 -5 -6 -6 -6
-5 -6 -5 -5 -6 -7 -7 -8 -8 -7 -6 -3 -3 -3 -2 -2 -2 -2 -2 -3 -3 -4 -3 -3 -3 -2 -2 -2 -2 -1 -1 -2 -2 -2 -1 -1 -0 -2 -3 -5 -5 -6 -7 -8 -8 -9 -9 -8 -6 -6 -7 -7 -8 -8
-6 -6 -6 -6 -6 -6 -7 -9 -9 -9 -8 -4 -3 -3 -3 -2 -1 -2 -2 -3 -3 -4 -3 -2 -2 -3 -2 -2 -1 -0 -0 -1 -3 -1 -2 -2 -2 -3 -4 -5 -5 -6 -7 -7 -8 -8 -8 -8 -8 -8 -8 -8 -8 -8
-7 -7 -7 -6 -6 -6 -7 -9 -7 -7 -7 -4 -3 -2 -1 -1 -3 -4 -5 -4 -4 -3 -3 -2 -1 -1 -1 -1 -1 -1 -3 -3 -1 -1 -1 -2 -2 -3 -5 -5 -5 -6 -7 -7 -8 -8 -8 -8 -8 -8 -8 -8 -8 -8
-9 -8 -7 -7 -7 -7 -7 -7 -7 -6 -6 -4 -3 -3 -3 -4 -3 -2 -3 -3 -4 -2 -2 -1 -1 -0 -2 -1 -2 -3 -1 -1 -3 -2 -2 -1 -3 -4 -5 -5 -5 -6 -7 -7 -7 -8 -8 -8 -8 -9 -9 -9 -8 -8
-8 -8 -8 -8 -7 -7 -7 -7 -6 -5 -5 -4 -4 -2 -3 -2 -1 -2 -2 -3 -2 -1 -1 -0 -1 -1 -1 -3 -2 -2 -3 -3 -2 -3 -1 -2 -3 -4 -5 -5 -5 -5 -6 -7 -7 -7 -7 -8 -8 -8 -8 -8 -8 -8
-9 -8 -8 -8 -8 -7 -6 -6 -6 -5 -5 -4 -4 -3 -2 -2 -1 -1 -2 -2 -1 -1 0 -0 -1 -3 -3 -2 -2 -4 -2 -3 -1 -1 -2 -2 -3 -4 -5 -5 -6 -6 -6 -7 -7 -7 -7 -8 -8 -8 -8 -8 -10 -16
-9 -8 -7 -7 -7 -7 -6 -6 -6 -6 -5 -6 -6 -6 -3 -2 -1 -2 -1 -1 -0 -0 -0 0 -3 -2 -1 -3 -3 -3 -2 -1 -1 -1 -2 -3 -3 -5 -5 -5 -7 -8 -10 -11 -10 -9 -8 -8 -9 -11 -14 -16 -17 -19
-10 -8 -8 -7 -6 -7 -6 -6 -7 -5 -7 -10 -7 -6 -4 -3 -3 -4 -4 -2 -1 -0 0 -1 -1 -2 -3 -3 -2 -1 -1 -1 -2 -3 -2 -3 -4 -5 -6 -6 -7 -11 -16 -19 -19 -17 -16 -15 -15 -16 -16 -14 -15 -19
-10 -11 -9 -8 -7 -7 -6 -5 -6 -9 -10 -8 -8 -7 -6 -5 -3 -6 -6 -2 -2 -1 -1 1 -2 -2 -1 -1 -3 -1 -2 -2 -3 -2 -3 -4 -4 -6 -6 -6 -7 -12 -17 -19 -20 -22 -23 -23 -22 -21 -19 -19 -20 -21
-11 -10 -9 -8 -8 -8 -8 -5 -6 -8 -11 -11 -6 -5 -5 -5 -5 -3 -2 -4 -2 -1 -1 -0 -1 -1 -5 -4 -3 -3 -3 -4 -5 -4 -3 -3 -4 -5 -5 -5 -6 -10 -15 -17 -19 -19 -21 -22 -24 -25 -25 -24 -23 -23
-8 -11 -11 -9 -9 -8 -7 -8 -5 -5 -6 -10 -12 -9 -6 -4 -3 -4 -4 -2 -4 -4 -4 -3 -3 -2 -4 -5 -6 -5 -3 -3 -4 -5 -4 -3 -5 -5 -5 -6 -6 -8 -12 -17 -18 -19 -20 -21 -23 -25 -26 -25 -24 -24
-8 -11 -10 -9 -8 -7 -8 -6 -5 -4 -4 -6 -7 -9 -10 -9 -7 -4 -3 -4 -4 -5 -4 -4 -4 -3 -4 -4 -5 -4 -3 -3 -3 -5 -5 -4 -4 -6 -6 -7 -7 -7 -10 -15 -18 -18 -18 -19 -20 -22 -25 -25 -25 -24
-8 -9 -10 -10 -7 -7 -7 -6 -7 -9 -9 -7 -3 -5 -9 -8 -8 -6 -7 -6 -5 -4 -4 -5 -4 -2 -3 -4 -3 -4 -3 -3 -3 -4 -5 -4 -3 -5 -7 -8 -7 -7 -8 -12 -16 -17 -17 -17 -18 -19 -22 -26 -26 -25
-8 -10 -9 -10 -7 -7 -7 -7 -9 -11 -9 -10 -8 -4 -2 -2 -2 -5 -5 -6 -6 -4 -6 -7 -4 -3 -3 -5 -5 -3 -3 -3 -3 -4 -5 -4 -3 -5 -6 -7 -7 -8 -8 -9 -11 -15 -16 -16 -16 -17 -18 -22 -25 -26
-8 -11 -10 -11 -9 -8 -10 -12 -8 -8 -10 -9 -10 -12 -6 -4 -3 -1 -6 -6 -5 -4 -6 -5 -5 -3 -2 -3 -1 -3 -4 -3 -3 -4 -5 -5 -4 -5 -6 -7 -8 -8 -8 -9 -9 -11 -13 -15 -15 -14 -15 -17 -21 -24
-9 -11 -14 -13 -11 -10 -10 -12 -15 -12 -9 -9 -11 -8 -6 -4 -5 -2 -4 -5 -5 -5 -5 -6 -5 -5 -6 -6 -6 -5 -3 -3 -4 -4 -5 -5 -4 -4 -4 -6 -8 -8 -8 -8 -8 -9 -10 -12 -13 -12 -12 -13 -16 -21
-8 -11 -9 -11 -11 -11 -9 -9 -9 -10 -11 -15 -12 -8 -4 -4 -8 -6 -7 -5 -5 -5 -5 -6 -6 -6 -6 -5 -5 -5 -4 -4 -3 -3 -4 -3 -3 -4 -4 -4 -4 -5 -6 -7 -7 -8 -8 -9 -9 -9 -9 -10 -11 -15
-9 -9 -8 -8 -8 -10 -11 -6 -8 -11 -9 -10 -7 -7 -7 -6 -6 -6 -6 -5 -7 -7 -5 -5 -5 -6 -5 -4 -4 -4 -4 -4 -3 -3 -3 -3 -3 -4 -4 -4 -4 -5 -5 -6 -6 -7 -7 -8 -8 -8 -8 -8 -9 -9
-13 -14 -12 -9 -8 -9 -12 -11 -10 -8 -8 -8 -6 -5 -5 -6 -7 -8 -8 -7 -6 -7 -7 -6 -6 -7 -6 -6 -5 -4 -3 -3 -4 -5 -6 -4 -5 -5 -4 -4 -4 -5 -5 -5 -6 -6 -7 -7 -7 -7 -7 -8 -8 -8
-13 -11 -12 -13 -12 -13 -11 -13 -12 -11 -11 -9 -9 -6 -6 -7 -7 -7 -7 -9 -9 -8 -5 -5 -6 -6 -5 -5 -4 -4 -4 -4 -4 -4 -4 -5 -5 -4 -4 -4 -5 -4 -4 -5 -6 -6 -6 -6 -7 -6 -7 -7 -8 -8
-12 -12 -12 -11 -11 -12 -15 -12 -10 -9 -8 -6 -7 -6 -6 -6 -5 -6 -7 -7 -9 -7 -5 -5 -4 -4 -3 -3 -3 -3 -4 -5 -5 -4 -4 -4 -3 -2 -2 -3 -5 -5 -5 -5 -5 -5 -5 -6 -7 -7 -7 -7 -7 -7
-11 -11 -11 -12 -13 -13 -12 -11 -13 -14 -10 -9 -9 -6 -5 -5 -6 -7 -7 -7 -7 -7 -5 -4 -3 -3 -3 -2 -2 -2 -2 -2 -3 -3 -3 -3 -3 -2 -3 -3 -3 -5 -6 -6 -6 -5 -5 -5 -5 -5 -5 -6 -7 -7

GFSWCAN_850_dewp_279.txt.gz
Dewpoint
-6 -6 -6 -5 -4 -4 -4 -5 -6 -5 -5 -5 -6 -8 -8 -8 -13 -15 -20 -21 -7 -1 -3 -3 -5 -6 -8 -9 -5 -6 -4 -3 -2 -1 -0 1 -0 -4 -5 -7 -6 -5 -4 -2 -3 0 1 -7 -7 -4 -2 -1 -1 -1
-5 -5 -6 -5 -5 -4 -4 -4 -3 -4 -4 -5 -5 -8 -13 -13 -16 -9 -4 -17 -7 -2 -2 -3 -4 -4 -4 -5 -7 -4 -2 -3 -3 -1 -2 -2 -0 -1 -2 -1 -7 -4 -6 -4 -4 -4 -7 -7 -5 -4 -5 -4 -4 -3
-5 -7 -7 -6 -5 -5 -6 -5 -5 -5 -5 -5 -6 -7 -12 -12 -11 -4 -2 -1 -2 -1 -1 -2 -4 -5 -9 -11 -5 -4 -5 -4 -3 -2 -1 -0 1 -2 0 -2 -4 -6 -6 -4 -4 -5 -6 -4 -4 -4 -4 -3 -5 -4
-8 -9 -9 -7 -7 -8 -9 -9 -8 -7 -7 -8 -7 -10 -10 -6 -5 -3 -1 -2 -1 -2 -1 -1 -4 -2 -2 -3 -6 -3 -2 -2 -2 -3 0 1 1 -3 -1 -2 -2 -4 -5 -4 -3 -5 -3 -4 -4 -3 -3 -3 -3 -4
-9 -9 -10 -10 -10 -10 -8 -7 -7 -7 -7 -8 -10 -7 -5 -4 -4 -3 -2 -2 -3 -1 -0 -1 -2 -2 -2 -2 -3 -3 -4 -3 -2 -1 -0 0 -3 -3 -3 -3 -1 -4 -5 -2 1 -2 -2 -3 -3 -3 -4 -4 -2 -6
-8 -8 -10 -12 -10 -8 -8 -7 -7 -8 -7 -4 -4 -4 -4 -3 -3 -1 -3 -3 -4 -2 -1 -0 -1 -2 -1 -1 -1 -2 -3 -3 -2 -1 -2 -2 -4 -3 0 -1 -5 -7 -5 -4 -2 -2 -4 -4 -4 -4 -4 -2 -2 -5
-8 -9 -12 -10 -9 -8 -8 -9 -7 -4 -4 -5 -5 -4 -4 -3 -1 -1 -0 -2 -3 -2 -2 -1 -1 -2 -1 -1 -1 -1 -2 -1 -2 -2 -1 -3 -3 -2 0 0 -5 -5 -3 -2 -4 -4 -5 -4 -5 -4 -4 -3 -2 -3
-7 -9 -9 -9 -8 -8 -6 -5 -5 -5 -5 -5 -6 -4 -3 -2 -3 -2 -3 -4 -3 -3 -2 -1 -3 -2 -1 -1 -2 -2 -1 -2 -2 -1 -1 -1 -2 -0 0 -4 -5 -3 -2 -4 -4 -5 -5 -5 -5 -4 -3 -3 -4 -4
-7 -8 -8 -8 -8 -6 -5 -4 -4 -6 -7 -7 -7 -5 -4 -3 -2 -1 -3 -3 -2 -1 -1 -2 -2 1 -2 -0 -1 -2 -2 -1 -1 -2 -2 -2 -1 0 -3 -4 -0 -2 -4 -5 -5 -5 -5 -5 -6 -6 -5 -4 -5 -5
-5 -8 -8 -7 -6 -6 -5 -5 -5 -6 -7 -7 -4 -2 -3 -2 -4 -4 -3 -2 -2 -2 -1 -1 -4 -0 -2 -1 -1 -1 -1 -1 1 -1 -1 0 -2 -5 -2 -1 -3 -4 -5 -6 -6 -6 -7 -6 -6 -7 -7 -7 -7 -7
-5 -7 -7 -7 -7 -7 -7 -6 -5 -6 -8 -3 -3 -2 -2 -3 -3 -1 -2 -2 -2 -2 -2 -3 -4 -1 -3 -0 -1 -2 -0 -1 0 0 -1 -0 -1 -3 -1 -2 -4 -5 -6 -7 -7 -8 -7 -7 -7 -7 -8 -8 -8 -8
-4 -4 -5 -5 -6 -7 -7 -7 -8 -6 -3 -3 -3 -3 -3 -2 -2 -2 -2 -4 -3 -4 -2 -2 -3 -3 -1 -2 -1 -0 -1 -1 -1 -1 -0 -1 -1 -1 -1 -3 -4 -6 -6 -7 -7 -8 -8 -8 -8 -8 -8 -9 -9 -8
-4 -5 -5 -5 -6 -6 -7 -7 -8 -5 -5 -4 -3 -2 -2 -2 -1 -1 -2 -4 -3 -5 -3 -3 -2 -2 -2 -3 -2 -1 0 -1 -3 -0 -2 -2 -1 -2 -2 -3 -5 -6 -7 -7 -8 -8 -8 -8 -9 -9 -9 -9 -9 -9
-6 -6 -6 -6 -6 -6 -6 -7 -9 -8 -4 -4 -3 -3 -2 -1 -4 -5 -6 -6 -5 -3 -3 -3 -2 -2 -1 -1 -0 -0 -2 -3 -0 0 -2 -2 -1 -2 -2 -4 -5 -6 -7 -7 -8 -8 -8 -8 -9 -9 -9 -9 -9 -9
-7 -7 -7 -6 -6 -7 -6 -7 -9 -6 -4 -4 -3 -2 -5 -7 -5 -2 -2 -3 -2 -2 -2 -1 -1 -0 -1 0 -2 -3 -1 -1 -3 -2 -2 1 -1 -2 -4 -5 -5 -6 -7 -7 -7 -8 -8 -8 -8 -9 -9 -8 -8 -8
-9 -9 -9 -7 -7 -7 -6 -6 -6 -5 -5 -5 -4 -3 -5 -3 -3 -2 -2 -2 -2 -2 -1 -0 -0 -0 -1 -2 -2 -1 -3 -3 -4 -3 1 -1 -2 -3 -5 -5 -5 -5 -6 -7 -7 -8 -8 -8 -9 -8 -8 -8 -8 -11
-11 -7 -9 -9 -8 -7 -6 -6 -6 -5 -5 -7 -8 -6 -5 -2 -2 -2 -2 -2 -2 -1 -0 -0 -0 -2 -3 -2 -3 -4 -3 -3 0 1 -0 -1 -2 -3 -5 -5 -6 -6 -5 -6 -6 -7 -7 -8 -8 -9 -9 -9 -13 -19
-8 -9 -10 -8 -7 -7 -6 -6 -6 -5 -5 -8 -9 -9 -7 -5 -3 -1 -1 -2 -1 -1 -2 -1 -3 -2 -1 -4 -4 -4 -3 -0 0 0 -0 -1 -2 -3 -3 -4 -6 -5 -6 -6 -7 -7 -7 -8 -8 -9 -11 -12 -14 -15
-7 -7 -9 -7 -7 -6 -6 -6 -5 -6 -9 -11 -10 -10 -9 -7 -6 -4 -1 -0 -1 -1 -1 -0 -1 -2 -4 -5 -5 -3 -3 -1 0 -0 -1 -1 -2 -3 -4 -4 -5 -6 -8 -12 -8 -8 -8 -9 -11 -11 -12 -13 -13 -13
-10 -8 -10 -8 -7 -7 -6 -6 -6 -8 -11 -10 -10 -10 -9 -8 -8 -6 -3 -2 -1 -0 -0 1 -1 -4 -4 -4 -2 -1 -1 -2 0 -1 -1 -2 -2 -4 -4 -5 -6 -7 -15 -10 -10 -10 -11 -11 -12 -12 -12 -12 -12 -12
-11 -8 -8 -8 -8 -8 -7 -6 -5 -8 -11 -11 -11 -8 -9 -9 -8 -8 -4 -3 -3 -2 -1 -0 -1 -2 -1 -2 -4 -3 -3 -1 -0 -1 -1 -2 -2 -3 -3 -4 -5 -8 -9 -10 -10 -11 -12 -11 -12 -12 -14 -12 -11 -11
-9 -8 -8 -8 -8 -8 -8 -11 -8 -5 -6 -12 -12 -12 -8 -5 -6 -7 -8 -6 -3 -4 -4 -3 -2 -1 -1 -1 -5 -6 -6 -5 -1 -0 -1 -2 -2 -3 -3 -4 -4 -6 -7 -9 -9 -11 -10 -10 -12 -19 -20 -20 -18 -19
-10 -8 -8 -8 -8 -8 -10 -13 -12 -9 -4 -8 -11 -10 -10 -9 -7 -5 -5 -6 -6 -6 -5 -5 -6 -7 -5 -4 -1 -1 -2 -5 -1 -1 -1 -1 -1 -2 -3 -3 -4 -5 -5 -6 -7 -10 -9 -12 -20 -25 -25 -26 -23 -24
-9 -8 -8 -10 -10 -10 -10 -11 -13 -12 -10 -8 -6 -4 -8 -9 -11 -9 -8 -7 -7 -6 -5 -5 -5 -4 -4 -4 -2 -1 -2 -5 -1 -0 -1 -1 -1 -2 -2 -3 -3 -4 -5 -6 -7 -8 -14 -18 -20 -23 -26 -27 -26 -26
-8 -8 -8 -9 -10 -9 -11 -10 -11 -10 -7 -9 -6 -5 -4 -3 -2 -5 -8 -9 -9 -8 -6 -5 -5 -3 -3 -3 -2 -1 -2 -5 -4 -1 -1 -3 -2 -1 -2 -3 -3 -4 -4 -6 -9 -13 -17 -17 -18 -19 -22 -26 -28 -27
-9 -8 -9 -12 -13 -13 -9 -10 -9 -9 -10 -8 -10 -12 -10 -4 -3 -4 -4 -6 -7 -7 -7 -7 -5 -4 -3 -3 -2 -2 -2 -4 -3 -1 -0 -2 -3 -3 -4 -4 -5 -5 -6 -7 -8 -11 -14 -16 -17 -17 -18 -20 -25 -27
-9 -8 -11 -15 -16 -16 -14 -14 -15 -14 -7 -7 -11 -8 -8 -3 -3 -7 -5 -4 -5 -5 -3 -3 -4 -3 -3 -3 -3 -3 -1 -3 -6 -6 -2 -3 -3 -4 -5 -5 -6 -8 -8 -9 -9 -9 -10 -13 -15 -16 -15 -16 -19 -23
-11 -12 -11 -14 -15 -17 -12 -11 -8 -9 -11 -15 -13 -7 -5 -7 -10 -7 -5 -5 -5 -3 -5 -4 -1 -1 -2 -2 -2 -1 -1 -2 -3 -1 -1 -2 -3 -3 -4 -4 -4 -6 -7 -8 -9 -9 -9 -10 -12 -13 -14 -14 -14 -16
-10 -12 -10 -10 -13 -14 -14 -12 -11 -10 -12 -13 -9 -8 -11 -14 -15 -11 -6 -7 -7 -4 -4 -5 -4 -4 -1 -1 -1 -2 -3 -4 -3 -2 -2 -3 -3 -4 -4 -3 -4 -4 -6 -7 -7 -8 -8 -9 -10 -11 -12 -12 -12 -12
-14 -15 -13 -12 -9 -11 -14 -15 -14 -12 -7 -6 -6 -6 -5 -6 -6 -7 -8 -8 -9 -7 -6 -5 -5 -4 -4 -4 -4 -4 -4 -4 -4 -4 -5 -4 -5 -6 -6 -4 -4 -4 -4 -5 -6 -7 -7 -8 -9 -8 -9 -9 -9 -9
-16 -16 -15 -14 -11 -12 -11 -9 -8 -8 -7 -7 -7 -6 -8 -7 -11 -17 -18 -14 -11 -10 -9 -8 -8 -5 -5 -4 -4 -4 -4 -4 -4 -4 -4 -4 -5 -6 -5 -5 -4 -4 -4 -5 -6 -6 -7 -8 -8 -8 -8 -8 -8 -8
-14 -12 -13 -11 -12 -14 -13 -11 -12 -12 -11 -10 -9 -9 -7 -6 -7 -7 -13 -10 -8 -9 -9 -10 -9 -6 -5 -5 -4 -4 -4 -5 -5 -4 -3 -4 -4 -5 -4 -4 -4 -4 -4 -5 -5 -6 -6 -7 -7 -7 -7 -7 -8 -8
-13 -13 -14 -12 -13 -14 -14 -11 -13 -14 -14 -13 -12 -11 -10 -9 -10 -10 -11 -13 -14 -11 -8 -8 -6 -4 -3 -3 -3 -3 -3 -3 -4 -4 -5 -5 -4 -4 -4 -4 -4 -4 -5 -5 -5 -5 -5 -6 -6 -6 -7 -7 -7 -7

GFSWCAN_850_dewp_285.txt.gz
Dewpoint
-6 -5 -5 -7 -9 -10 -9 -7 -6 -6 -6 -8 -10 -10 -13 -15 -14 -14 -7 -5 -5 -2 -3 -3 -4 -4 -6 -4 -1 -3 -3 -3 -2 1 2 1 1 -1 -3 -4 -5 -3 -1 0 -0 0 -1 -4 -3 -0 -2 -3 -3 -3
-6 -6 -5 -4 -4 -4 -6 -6 -5 -4 -5 -7 -12 -13 -13 -11 -14 -17 -10 -7 -8 -6 -3 -3 -3 -4 -5 -3 -3 -4 -2 -3 -3 1 1 1 1 0 -0 1 -5 -2 -3 -1 -1 -1 -3 -3 -3 -3 -3 -3 -4 -3
-8 -8 -6 -6 -6 -5 -4 -4 -5 -5 -6 -7 -10 -13 -11 -5 -2 -7 -9 -7 -7 -8 -4 -5 -3 -5 -6 -3 -2 -3 -2 -2 -1 0 2 1 0 -1 -0 -0 -2 -3 -4 -2 -3 -4 -2 -2 -3 -4 -3 -4 -3 -3
-10 -10 -9 -7 -7 -8 -8 -7 -7 -8 -9 -9 -10 -14 -10 -9 -7 -4 -4 -2 -6 -5 -3 -2 -3 -6 -7 -5 -2 -3 -2 -1 -2 -1 -0 -0 -1 -1 -1 -1 -1 -2 -3 -3 -2 -2 -3 -3 -3 -3 -4 -4 -3 -3
-9 -10 -11 -10 -10 -12 -12 -11 -10 -11 -11 -11 -12 -10 -7 -5 -3 -2 -4 -4 -2 -2 -1 -1 -2 -2 -3 -10 -4 -2 -2 -2 -2 -3 -2 -4 -1 -3 -2 -2 -1 -4 -3 -1 -0 -1 -2 -2 -3 -3 -4 -3 -4 -3
-9 -8 -9 -12 -10 -9 -10 -9 -9 -10 -10 -10 -8 -6 -5 -4 -2 -4 -4 -5 -1 -1 -2 -1 -1 -1 -1 -3 -4 -7 -3 -1 -1 -2 -1 -2 -2 -3 -3 -2 -4 -4 -2 -2 -1 -2 -5 -3 -4 -4 -4 -3 -4 -3
-8 -9 -12 -13 -10 -9 -9 -9 -8 -7 -6 -6 -6 -5 -4 -2 -3 -3 -2 -2 -3 -4 -4 -1 -1 -1 -2 -2 -1 -1 -2 -2 -2 -3 -3 -2 -3 -3 -3 -2 -4 -4 -2 -3 -3 -5 -4 -5 -5 -4 -4 -4 -4 -4
-6 -9 -12 -11 -10 -10 -9 -7 -5 -5 -6 -7 -7 -5 -4 -4 -4 -3 -4 -3 -2 -2 -2 -2 -0 -1 -2 -2 -2 -1 -1 -3 -3 -3 -1 -2 -3 -2 -1 -2 -4 -2 -3 -3 -5 -5 -5 -4 -5 -4 -4 -5 -6 -6
-4 -8 -10 -11 -11 -8 -6 -6 -6 -7 -7 -7 -6 -6 -4 -2 -1 -2 -4 -5 -3 -1 -3 -3 -2 -1 -2 -1 -2 -2 -3 -2 -3 -2 -2 -2 -2 -2 -2 -3 -3 -1 -3 -4 -5 -5 -6 -5 -5 -5 -5 -6 -7 -7
-3 -7 -9 -10 -8 -6 -8 -6 -7 -8 -9 -8 -6 -5 -4 -2 -3 -4 -3 -2 -3 -1 -1 -2 -3 -1 -1 -1 -1 -2 -3 -2 -0 -2 -3 -3 -2 -4 -4 -3 -3 -2 -4 -5 -6 -6 -6 -6 -6 -6 -7 -7 -7 -8
-3 -7 -8 -9 -8 -7 -8 -7 -8 -8 -6 -4 -2 -3 -3 -4 -2 -2 -2 -2 -3 -2 -3 -2 -2 -0 -1 -2 -3 -2 -2 -2 -2 -1 -2 -1 -0 -2 -2 -1 -2 -4 -5 -6 -7 -7 -6 -6 -7 -7 -7 -8 -8 -8
-3 -6 -7 -7 -7 -7 -7 -8 -8 -5 -3 -4 -3 -3 -3 -3 -3 -2 -3 -3 -3 -2 -2 -2 -2 1 0 -1 -0 -1 -2 -2 -0 -1 -1 -1 -1 -1 -1 -2 -3 -5 -6 -7 -7 -7 -7 -7 -7 -8 -9 -9 -9 -9
-3 -4 -5 -7 -7 -7 -8 -9 -9 -6 -6 -5 -3 -2 -4 -3 -2 -3 -3 -2 -2 -1 -2 -1 -1 -0 -2 -1 -1 -1 -2 -2 -3 -0 -1 -2 0 -1 -2 -2 -4 -5 -7 -7 -7 -7 -8 -8 -8 -9 -9 -9 -9 -9
-4 -4 -5 -6 -6 -6 -7 -8 -8 -7 -5 -5 -5 -6 -5 -4 -4 -4 -4 -3 -5 -2 -2 -2 -2 -2 -1 -2 -1 -2 -3 -2 -2 -3 -1 -2 -0 -1 -1 -2 -5 -6 -7 -7 -7 -8 -8 -8 -8 -9 -9 -9 -9 -9
-4 -4 -4 -5 -4 -5 -6 -7 -8 -8 -5 -4 -4 -5 -4 -6 -5 -5 -4 -3 -1 -2 -3 -2 -2 -2 -2 -2 -2 -2 -1 -1 -1 -2 -2 0 -0 -1 -2 -4 -5 -6 -7 -7 -7 -7 -8 -8 -8 -8 -9 -9 -9 -9
-5 -5 -5 -5 -5 -6 -6 -6 -7 -8 -6 -4 -4 -4 -5 -4 -5 -8 -6 -2 -0 -2 -2 -2 -1 -1 -2 -1 -1 -1 -1 -1 -2 -1 0 -0 -1 -2 -3 -4 -5 -7 -7 -7 -7 -7 -8 -7 -8 -8 -9 -9 -9 -10
-9 -6 -7 -7 -7 -7 -6 -6 -6 -6 -5 -4 -4 -6 -6 -5 -4 -3 -4 -5 -1 -0 -1 -1 -1 -1 -2 -1 -1 -3 -2 -2 1 1 1 0 -1 -2 -3 -4 -5 -6 -7 -7 -7 -7 -7 -8 -8 -8 -8 -9 -12 -18
-10 -8 -8 -8 -8 -7 -6 -6 -5 -5 -5 -6 -5 -7 -8 -9 -10 -9 -5 -3 -2 -2 -1 -2 -3 -1 -2 -1 -2 -3 -5 -1 0 0 -0 -1 -2 -4 -3 -4 -5 -5 -7 -7 -8 -8 -8 -8 -8 -8 -9 -13 -20 -20
-8 -8 -8 -9 -9 -7 -6 -7 -6 -5 -5 -7 -9 -9 -9 -8 -8 -7 -7 -7 -5 -3 -1 -0 -0 -1 -1 -4 -3 -3 -2 -1 1 0 -0 -1 -3 -4 -4 -5 -6 -6 -6 -7 -7 -9 -10 -10 -10 -10 -12 -17 -21 -21
-9 -8 -8 -7 -9 -9 -9 -7 -6 -6 -8 -9 -9 -9 -10 -9 -10 -9 -8 -7 -5 -3 -2 -1 -0 -2 -3 -2 -3 -3 -2 -1 -1 -0 -1 -1 -2 -3 -4 -6 -7 -5 -5 -6 -7 -9 -9 -8 -7 -8 -13 -19 -20 -20
-10 -11 -10 -10 -9 -9 -8 -7 -6 -8 -10 -11 -12 -11 -8 -9 -9 -9 -9 -8 -6 -4 -2 -3 -3 -2 -4 -3 -2 -3 -3 -2 -2 -2 -3 -2 -3 -3 -3 -4 -6 -5 -6 -7 -10 -11 -9 -9 -9 -10 -13 -16 -14 -15
-9 -8 -7 -8 -8 -8 -8 -9 -8 -8 -8 -8 -7 -8 -10 -8 -7 -8 -8 -7 -7 -7 -7 -6 -4 -5 -6 -4 -4 -2 -3 -3 -3 -3 -0 -1 -3 -3 -3 -3 -5 -5 -7 -9 -16 -15 -13 -10 -10 -12 -13 -13 -12 -12
-11 -10 -9 -9 -7 -7 -9 -11 -9 -11 -8 -8 -9 -7 -7 -8 -9 -10 -8 -6 -6 -6 -7 -7 -6 -5 -4 -4 -4 -4 -2 -3 -1 -2 -1 -1 -2 -3 -4 -4 -4 -6 -6 -8 -15 -15 -13 -12 -12 -13 -13 -12 -12 -12
-10 -11 -9 -10 -9 -8 -10 -12 -14 -14 -14 -12 -10 -9 -9 -8 -6 -8 -8 -9 -9 -9 -7 -6 -6 -5 -5 -4 -5 -5 -6 -3 -2 -3 -3 -1 -1 -3 -3 -4 -4 -5 -7 -8 -10 -13 -14 -15 -14 -13 -14 -14 -14 -16
-10 -12 -10 -9 -10 -7 -10 -10 -13 -13 -10 -11 -11 -11 -9 -11 -6 -3 -5 -8 -9 -10 -10 -10 -7 -5 -5 -5 -4 -5 -6 -6 -6 -7 -5 -3 -1 -0 -2 -2 -3 -3 -4 -5 -7 -9 -12 -13 -14 -14 -14 -17 -21 -22
-10 -14 -10 -10 -11 -11 -11 -11 -11 -10 -13 -12 -11 -12 -13 -8 -6 -6 -7 -8 -3 -2 -2 -3 -4 -6 -5 -4 -5 -5 -5 -5 -6 -8 -10 -7 -4 -2 -1 -2 -2 -3 -3 -4 -5 -7 -9 -11 -13 -15 -15 -17 -21 -23
-11 -11 -13 -13 -14 -15 -14 -16 -16 -13 -10 -7 -8 -9 -8 -7 -6 -7 -9 -6 -4 -3 -3 -3 -3 -3 -3 -3 -2 -2 -3 -4 -3 -3 -7 -5 -3 -2 -2 -3 -4 -7 -4 -4 -5 -5 -7 -9 -10 -13 -15 -17 -19 -20
-13 -17 -14 -16 -13 -14 -13 -12 -11 -11 -12 -14 -11 -6 -5 -8 -8 -11 -8 -5 -5 -6 -8 -9 -10 -9 -6 -4 -4 -4 -3 -3 -3 -4 -2 -1 -1 -2 -2 -1 -2 -2 -2 -3 -4 -5 -6 -7 -8 -10 -13 -16 -17 -17
-11 -12 -17 -17 -17 -15 -11 -11 -12 -14 -14 -12 -7 -7 -9 -9 -9 -8 -6 -5 -6 -8 -8 -9 -10 -10 -10 -8 -7 -5 -4 -2 -2 -3 -3 -1 -0 -1 -0 0 0 -0 -1 -1 -2 -4 -5 -5 -7 -8 -9 -12 -14 -16
-15 -16 -14 -11 -9 -13 -17 -16 -14 -14 -13 -13 -12 -12 -11 -11 -11 -11 -10 -9 -9 -11 -12 -15 -16 -15 -11 -11 -11 -7 -5 -1 -1 -1 -3 -2 -1 -2 -2 -1 0 0 -1 -1 -2 -3 -3 -4 -5 -6 -7 -10 -13 -15
-16 -16 -16 -16 -14 -13 -10 -11 -12 -12 -11 -10 -11 -9 -8 -8 -9 -10 -10 -11 -13 -10 -8 -10 -15 -15 -10 -7 -5 -6 -5 -2 -1 -1 -2 -3 -3 -2 -2 -2 -1 -2 -2 -1 -2 -3 -4 -4 -5 -6 -7 -9 -10 -11
-14 -12 -12 -12 -13 -15 -15 -13 -10 -7 -7 -9 -9 -9 -9 -9 -8 -9 -12 -12 -14 -19 -19 -18 -18 -12 -9 -6 -4 -3 -3 -3 -3 -1 -0 -1 -1 -0 -1 -2 -2 -2 -2 -2 -3 -3 -4 -5 -5 -7 -7 -8 -9 -10
-12 -12 -13 -13 -13 -13 -13 -12 -11 -11 -12 -11 -10 -12 -12 -10 -9 -11 -14 -16 -16 -15 -15 -14 -12 -10 -13 -10 -5 -4 -3 -3 -3 -2 -1 -1 -0 -0 -1 -2 -2 -2 -2 -3 -3 -3 -4 -4 -5 -6 -7 -8 -8 -9

GFSWCAN_850_dewp_288.txt.gz
Dewpoint
-5 -7 -8 -5 -7 -8 -8 -8 -8 -8 -9 -10 -12 -14 -15 -17 -18 -15 -14 -13 -3 -4 -2 -3 -3 -4 -3 -4 -2 -3 -4 -5 -2 -2 -0 0 1 -1 -3 -4 -3 -2 -0 0 -1 0 0 -3 -4 -3 -3 -4 -4 -3
-7 -6 -6 -5 -7 -9 -9 -8 -8 -8 -10 -13 -12 -13 -14 -15 -14 -10 -8 -6 -6 -7 -3 -3 -3 -4 -3 -3 -4 -5 -5 -3 -5 -0 -1 -2 -1 -1 -1 -0 -4 -2 -3 -1 -1 -1 -3 -4 -4 -4 -4 -4 -3 -3
-5 -6 -5 -4 -3 -4 -5 -5 -6 -7 -8 -13 -15 -12 -6 -8 -14 -13 -9 -8 -8 -6 -4 -4 -4 -5 -3 -3 -4 -3 -1 -2 -1 0 1 -0 -1 -1 0 -0 -2 -3 -4 -2 -3 -2 -2 -3 -3 -4 -4 -4 -4 -3
-9 -7 -6 -6 -6 -6 -5 -5 -6 -8 -10 -11 -16 -15 -13 -9 -9 -14 -14 -11 -12 -9 -4 -3 -3 -5 -6 -2 -3 -3 -3 -2 -1 -0 -1 -1 -4 -1 -2 -2 -1 -2 -3 -3 -3 -1 -2 -3 -4 -4 -4 -5 -4 -3
-12 -11 -9 -8 -9 -10 -9 -9 -10 -11 -11 -11 -14 -10 -10 -9 -8 -10 -8 -6 -11 -7 -1 -2 -3 -4 -8 -4 -2 -2 -2 -2 -2 -3 -3 -4 -1 -3 -2 -2 -2 -3 -3 -2 -2 -3 -3 -3 -4 -5 -5 -4 -4 -4
-9 -11 -14 -14 -13 -13 -12 -10 -10 -11 -11 -11 -8 -6 -4 -2 -2 -7 -9 -4 -2 -3 -3 -3 -1 -1 -4 -6 -4 -2 -2 -2 -3 -4 -2 -1 -2 -4 -5 -2 -3 -3 -4 -3 -2 -2 -4 -5 -4 -5 -4 -4 -4 -4
-9 -12 -15 -13 -11 -11 -10 -10 -8 -6 -6 -5 -5 -4 -2 -3 -6 -5 -3 -4 -3 -4 -3 -1 -1 -1 -1 -2 -2 -2 -2 -2 -2 -4 -3 -2 -3 -3 -6 -3 -4 -2 -2 -2 -3 -4 -4 -4 -5 -5 -4 -4 -4 -4
-8 -12 -14 -13 -13 -12 -10 -8 -7 -7 -7 -6 -4 -3 -4 -4 -4 -4 -3 -3 -5 -6 -3 -4 -1 -1 -2 -2 -1 -1 -3 -3 -3 -4 -2 -1 -4 -3 -2 -3 -3 -2 -3 -3 -5 -5 -5 -5 -5 -4 -4 -5 -5 -6
-7 -10 -11 -12 -13 -11 -9 -8 -8 -8 -8 -6 -6 -4 -3 -3 -2 -2 -4 -5 -3 -4 -4 -2 -2 -2 -2 -2 -3 -3 -3 -3 -3 -3 -1 -2 -4 -1 -3 -3 -3 -3 -3 -3 -5 -5 -6 -6 -5 -5 -5 -5 -6 -7
-4 -9 -10 -11 -10 -9 -8 -9 -9 -10 -9 -8 -6 -7 -4 -2 -3 -4 -4 -5 -4 -1 -2 -2 -0 -1 -2 -2 -2 -3 -3 -3 -1 -3 -3 -4 -2 -5 -5 -4 -4 -2 -2 -4 -5 -6 -6 -6 -6 -6 -6 -6 -7 -8
-3 -6 -9 -9 -8 -9 -7 -8 -10 -10 -7 -4 -3 -4 -3 -4 -3 -3 -3 -4 -3 -3 -3 -2 -1 -1 -1 -2 -3 -3 -2 -3 -1 -2 -2 -1 -1 -2 -3 -4 -3 -2 -3 -5 -6 -7 -6 -6 -6 -7 -7 -7 -8 -8
-3 -5 -8 -9 -8 -8 -9 -9 -9 -8 -6 -4 -4 -3 -3 -3 -3 -4 -4 -3 -3 -3 -3 -2 -2 -1 -1 -2 -2 -2 -1 -3 -1 -1 -1 -1 -2 -1 -2 -2 -2 -4 -5 -7 -7 -7 -7 -6 -7 -7 -8 -8 -8 -8
-2 -3 -7 -8 -8 -8 -8 -9 -8 -6 -5 -6 -4 -3 -5 -4 -5 -5 -5 -2 -3 -2 -2 -1 0 0 0 0 -0 -2 -2 -2 -2 -0 -0 -2 -2 -3 -2 -2 -3 -5 -7 -7 -7 -7 -7 -7 -8 -8 -8 -8 -9 -9
-3 -4 -4 -5 -7 -8 -8 -9 -9 -6 -6 -5 -6 -8 -7 -6 -5 -4 -5 -4 -5 -2 -2 -1 -1 -2 -1 -2 -2 -2 -3 -3 -2 -3 -1 -3 -1 -2 -2 -3 -4 -6 -7 -8 -8 -8 -8 -8 -8 -9 -9 -9 -9 -9
-4 -4 -4 -5 -6 -7 -7 -8 -9 -7 -7 -5 -5 -7 -4 -6 -5 -5 -5 -3 -1 -2 -2 -2 -2 -3 -3 -3 -3 -3 -1 -1 -1 -2 -3 -2 -1 -1 -2 -2 -4 -6 -8 -8 -8 -8 -8 -8 -9 -9 -9 -9 -9 -9
-4 -4 -4 -5 -5 -5 -6 -7 -8 -9 -8 -5 -4 -5 -5 -5 -5 -5 -7 -4 -1 -2 -3 -3 -2 -2 -2 -2 -1 -2 -1 -0 -3 -4 -3 -1 -1 -1 -1 -3 -5 -6 -8 -8 -8 -8 -8 -8 -9 -9 -9 -9 -9 -9
-5 -5 -4 -5 -5 -5 -6 -6 -6 -7 -7 -5 -5 -6 -5 -5 -5 -4 -3 -3 -2 -1 -0 -1 -1 -3 -3 -1 -0 -3 -2 -3 -2 -1 -2 -1 -1 -1 -2 -4 -5 -7 -8 -8 -8 -8 -8 -8 -8 -8 -9 -9 -9 -11
-8 -7 -6 -6 -6 -6 -6 -6 -6 -5 -5 -7 -5 -8 -8 -8 -8 -7 -7 -9 -3 -0 -1 -0 -1 -2 -2 -0 -2 -3 -5 -4 -2 -2 -0 -0 -1 -1 -2 -3 -5 -6 -8 -9 -8 -9 -8 -8 -8 -8 -9 -9 -11 -16
-10 -9 -8 -7 -8 -7 -7 -6 -6 -6 -6 -6 -7 -9 -7 -8 -8 -8 -8 -9 -7 -6 -4 -1 -0 -1 -2 -3 -4 -3 -3 -1 -1 -0 0 -1 -1 -2 -4 -4 -5 -6 -7 -9 -9 -10 -9 -8 -9 -9 -10 -13 -21 -21
-10 -9 -8 -8 -9 -9 -9 -8 -7 -6 -7 -9 -9 -9 -9 -10 -11 -11 -9 -8 -8 -5 -3 -3 -1 -1 -1 -1 -1 -1 -2 -2 -1 -0 -0 -1 -2 -3 -4 -5 -7 -7 -7 -8 -9 -10 -9 -9 -9 -11 -13 -15 -21 -22
-11 -9 -9 -10 -9 -10 -10 -8 -7 -7 -8 -9 -12 -11 -11 -12 -9 -9 -11 -13 -9 -6 -4 -4 -5 -6 -4 -2 -2 -1 -2 -1 -1 -1 -3 -3 -2 -4 -4 -6 -6 -7 -8 -9 -9 -10 -9 -11 -12 -11 -11 -15 -20 -23
-10 -9 -8 -8 -10 -10 -9 -10 -10 -9 -7 -8 -9 -8 -9 -10 -10 -10 -11 -8 -7 -8 -8 -7 -8 -7 -7 -7 -7 -4 -2 -2 -2 0 -1 -2 -3 -4 -5 -5 -7 -7 -7 -8 -9 -11 -13 -12 -10 -10 -10 -13 -18 -17
-9 -8 -8 -8 -8 -8 -9 -9 -8 -11 -11 -10 -11 -10 -8 -6 -7 -9 -9 -9 -8 -8 -8 -8 -7 -7 -7 -8 -7 -6 -7 -4 -1 -1 -1 -0 -1 -2 -4 -4 -5 -7 -7 -7 -7 -8 -13 -13 -11 -9 -10 -13 -16 -14
-13 -12 -11 -11 -9 -9 -9 -9 -10 -12 -13 -10 -9 -10 -9 -11 -13 -10 -6 -7 -9 -10 -10 -9 -10 -8 -7 -7 -6 -6 -7 -6 -4 -2 -2 -1 -2 -1 -1 -3 -4 -5 -6 -7 -7 -8 -10 -12 -11 -9 -10 -13 -15 -14
-13 -14 -11 -10 -11 -8 -12 -11 -12 -11 -11 -10 -10 -12 -11 -8 -8 -8 -10 -14 -12 -4 -7 -9 -9 -9 -9 -9 -8 -7 -6 -7 -6 -6 -4 -2 -3 -2 -1 -1 -3 -4 -4 -4 -5 -7 -9 -12 -11 -11 -12 -13 -14 -15
-13 -13 -11 -10 -11 -10 -10 -14 -14 -14 -13 -13 -12 -18 -15 -10 -9 -9 -8 -12 -9 -8 -4 -3 -3 -4 -5 -5 -6 -5 -5 -5 -5 -4 -5 -5 -5 -4 -3 -3 -2 -3 -3 -3 -4 -5 -7 -10 -12 -12 -14 -15 -14 -14
-14 -14 -13 -14 -12 -13 -14 -14 -15 -12 -11 -10 -8 -7 -11 -13 -12 -9 -9 -7 -8 -6 -4 -5 -6 -8 -6 -4 -2 -2 -2 -3 -3 -4 -4 -5 -6 -5 -5 -5 -4 -6 -4 -5 -5 -4 -4 -6 -9 -11 -14 -15 -14 -14
-12 -13 -15 -15 -15 -14 -13 -12 -13 -15 -13 -16 -13 -10 -10 -7 -7 -8 -10 -9 -6 -5 -5 -6 -7 -8 -9 -9 -8 -7 -7 -5 -4 -2 -2 -3 -2 -3 -2 -3 -4 -4 -2 -1 -3 -4 -3 -4 -5 -8 -10 -12 -14 -15
-11 -15 -18 -18 -19 -17 -14 -11 -12 -14 -15 -14 -10 -8 -9 -11 -12 -12 -12 -13 -14 -9 -6 -6 -10 -12 -14 -14 -11 -10 -10 -9 -8 -6 -5 -2 -3 -3 -3 -2 -1 -1 -2 -0 -0 -1 -2 -3 -4 -5 -7 -8 -10 -13
-11 -14 -13 -11 -14 -15 -17 -17 -18 -16 -14 -14 -13 -13 -14 -15 -16 -15 -13 -12 -12 -12 -10 -10 -10 -11 -13 -15 -13 -13 -11 -8 -6 -5 -5 -4 -4 -6 -5 -5 -2 -1 -1 -1 0 -0 -1 -2 -3 -3 -4 -5 -7 -9
-16 -14 -14 -15 -15 -16 -16 -16 -16 -15 -15 -12 -10 -10 -11 -11 -10 -12 -14 -13 -14 -14 -13 -11 -11 -15 -17 -16 -11 -9 -8 -7 -5 -3 -3 -2 -3 -3 -3 -3 -3 -1 -1 -1 -0 -0 -0 -1 -2 -3 -4 -5 -6 -7
-15 -15 -16 -17 -16 -18 -17 -15 -14 -15 -13 -14 -8 -9 -10 -10 -9 -10 -14 -14 -11 -11 -14 -16 -15 -16 -14 -13 -11 -13 -10 -7 -4 -3 -3 -2 -1 -1 -2 -2 -2 -2 -1 -1 -0 -0 -1 -1 -2 -3 -4 -4 -5 -6
-12 -14 -14 -13 -11 -12 -13 -13 -12 -11 -11 -11 -12 -12 -14 -12 -10 -12 -14 -16 -15 -12 -11 -12 -13 -14 -14 -14 -16 -17 -11 -5 -4 -3 -4 -3 -1 -1 -1 -1 -0 -0 -0 -0 -0 -1 -1 -2 -2 -3 -3 -4 -5 -6